Location: Zengebe
(1.4833°N, 32.5167°E)
Time: 09:06:42
(UTC+00:00)

USA 234 - Pass Details

Date: 07 June 2020
Orbit: 1102 x 1106 km, 123.0° (Epoch: 14 May)

Event Time Altitude Azimuth Distance (km) Brightness Sun altitude
Rises 01:00:31 0° 36° (NE) 3,903 7.0 -37.4°
Reaches altitude 10° 01:02:59 10° 37° (NE) 2,948 6.1 -36.9°
Enters shadow 01:08:12 61° 38° (NE) 1,233 3.6 -35.8°
